Location: Dayton
(39.7590°N, 84.1920°W)
Time: 00:16:17
(UTC-04:00)

ATLAS CENTAUR R/B - Visible Passes

Search period start: 24 October 2017 00:00
Search period end: 03 November 2017 00:00
Orbit: 212 x 7324 km, 57.3° (Epoch: 21 September)

Date Brightness Start Highest point End Pass type
(mag) Time Alt. Az. Time Alt. Az. Time Alt. Az.
24 Oct 8.3 03:50:22 10° SE 04:19:50 24° E 04:45:52 10° NE visible
24 Oct 7.6 06:30:46 10° SSW 07:16:18 73° ESE 07:50:04 10° NE visible
25 Oct 7.9 04:59:15 10° SSE 05:39:13 47° ESE 06:12:51 10° NE visible
26 Oct 8.2 03:35:08 10° SE 04:05:15 25° E 04:32:07 10° NE visible
26 Oct 7.5 06:16:25 10° SSW 07:01:50 74° ESE 07:36:01 10° NE visible
27 Oct 7.9 04:44:14 10° SSE 05:24:11 48° ESE 05:58:19 10° NE visible
28 Oct 8.1 03:19:11 10° SE 03:49:44 26° E 04:17:16 10° NE visible
28 Oct 7.5 06:01:07 10° SSW 06:46:21 75° ESE 07:20:58 10° NE visible
29 Oct 7.8 04:28:19 10° S 05:08:10 49° ESE 05:42:47 10° NE visible
29 Oct 7.2 07:22:53 10° SW 08:11:40 80° NW 08:42:25 10° NE visible
30 Oct 8.1 03:02:30 10° SE 03:33:15 26° E 04:01:19 10° NE visible
30 Oct 7.4 05:44:53 10° SSW 06:29:52 76° ESE 07:04:55 10° NE visible
31 Oct 7.7 04:11:31 10° S 04:51:11 50° ESE 05:26:14 10° NE visible
31 Oct 7.2 07:06:09 10° SW 07:54:44 79° NW 08:25:54 10° NE visible
01 Nov 8.0 02:45:03 10° SE 03:15:51 27° E 03:44:18 10° NE visible
01 Nov 7.4 05:27:40 10° SSW 06:12:21 76° ESE 06:47:53 10° NE visible
02 Nov 7.7 03:53:49 10° S 04:33:12 50° ESE 05:08:40 10° NE visible
02 Nov 7.2 06:48:25 10° SW 07:36:45 79° NW 08:08:25 10° NE visible
